Terminal Aerodrome Forecast
Issued by NWS Pocatello, ID

Home | Current Version | Previous Version | Text Only | Print | Product List | Glossary On
Versions: 1 2 3 4 5 6 7 8 9 10 11 12 13 14 15 16 17 18 19 20 21
000
FTUS45 KPIH 111900 AAA
TAFPIH
TAF AMD
KPIH 111956Z 1120/1218 27010KT P6SM VCTS SCT050CB BKN120
      TEMPO 1120/1123 VRB20G35KT -TSRA OVC060CB
     FM120300 18006KT P6SM SCT100 SCT200=

USA.gov is the U.S. government's official web portal to all federal, state and local government web resources and services.